Date String (YYYY-MM-DD hh:mm:ss) UTC,Instrument flags,Ambient pressure (hPa),Sample flow (lpm),Bypass flow (lpm),Sample temperature (°C),Ambient temperature (°C),ASC tube jacket temperature (°C),LED temperature (°C),Box temperature (°C),Sample RH (%),Span deviation,Mass concentration (μg/m³),Mass concentration (μg/m³),Mass concentration (μg/m³)
DateTimeUTC,F1_M11,P_M11,Q1_M11,Q2_M11,T1_M11,T2_M11,T3_M11,T4_M11,T5_M11,U1_M11,ZSPAN_M11,X0_M11,X2_M11,X1_M11
2022-08-27 21:00:00,,0821.9,5.00,0.00,29.4,27.0,00.0,38.0,31.2,13.5,0000.0,0008.20,0004.27,0003.81
2022-08-27 21:01:00,,0821.8,5.00,0.00,29.4,27.3,00.0,38.0,31.1,13.9,0000.0,0008.06,0004.25,0003.81
2022-08-27 21:02:00,,0821.8,4.99,0.00,29.4,27.6,00.0,38.0,31.2,14.0,0000.0,0008.17,0004.26,0003.81
2022-08-27 21:03:00,,0821.7,5.01,0.00,29.4,27.9,00.0,38.0,31.2,13.8,0000.0,0008.23,0004.25,0003.79
2022-08-27 21:04:00,,0821.7,5.00,0.00,29.4,28.1,00.0,38.0,31.3,13.7,0000.0,0008.28,0004.23,0003.77
2022-08-27 21:05:00,,0821.8,5.00,0.00,29.5,28.3,00.0,38.0,31.4,13.7,0000.0,0008.61,0004.22,0003.77
2022-08-27 21:06:00,,0821.8,5.01,0.00,29.5,27.6,00.0,38.0,31.4,13.9,0000.0,0008.17,0004.21,0003.77
2022-08-27 21:07:00,,0821.7,4.99,0.00,29.5,26.7,00.0,38.0,31.3,13.8,0000.0,0008.29,0004.23,0003.77
2022-08-27 21:08:00,,0821.6,5.01,0.00,29.4,26.8,00.0,38.0,31.3,13.9,0000.0,0008.41,0004.25,0003.76
2022-08-27 21:09:00,,0821.5,4.99,0.00,29.4,27.1,00.0,38.0,31.2,14.4,0000.0,0008.98,0004.24,0003.77
2022-08-27 21:10:00,,0821.5,5.00,0.00,29.4,27.4,00.0,38.0,31.1,14.9,0000.0,0009.29,0004.25,0003.79
2022-08-27 21:11:00,,0821.3,5.01,0.00,29.4,27.6,00.0,38.0,31.2,14.3,0000.0,0009.45,0004.27,0003.80
2022-08-27 21:12:00,,0821.4,4.99,0.00,29.4,27.9,00.0,38.0,31.2,14.6,0000.0,0009.50,0004.30,0003.81
2022-08-27 21:13:00,,0821.3,5.00,0.00,29.4,28.1,00.0,38.0,31.3,14.5,0000.0,0009.53,0004.32,0003.83
2022-08-27 21:14:00,,0821.5,5.01,0.00,29.5,28.3,00.0,38.0,31.4,14.6,0000.0,0009.50,0004.36,0003.85
2022-08-27 21:15:00,,0821.6,5.00,0.00,29.5,27.8,00.0,38.1,31.4,14.5,0000.0,0009.40,0004.39,0003.86
2022-08-27 21:16:00,,0821.7,4.99,0.00,29.5,26.7,00.0,38.0,31.3,14.8,0000.0,0008.97,0004.40,0003.86
2022-08-27 21:17:00,,0821.6,4.99,0.00,29.4,26.7,00.0,38.0,31.3,14.5,0000.0,0009.47,0004.40,0003.87
2022-08-27 21:18:00,,0821.6,5.01,0.00,29.4,27.0,00.0,38.0,31.2,14.4,0000.0,0009.52,0004.38,0003.86
2022-08-27 21:19:00,,0821.7,4.99,0.00,29.4,27.3,00.0,38.0,31.1,14.6,0000.0,0009.49,0004.39,0003.87
2022-08-27 21:20:00,,0821.7,5.01,0.00,29.4,27.6,00.0,38.0,31.2,14.1,0000.0,0008.88,0004.38,0003.87
2022-08-27 21:21:00,,0821.6,5.00,0.00,29.4,27.9,00.0,38.0,31.3,14.1,0000.0,0008.49,0004.36,0003.87
2022-08-27 21:22:00,,0821.5,4.99,0.00,29.4,28.1,00.0,38.0,31.4,13.9,0000.0,0008.44,0004.39,0003.87
2022-08-27 21:23:00,,0821.6,5.00,0.00,29.5,28.3,00.0,38.0,31.4,13.9,0000.0,0008.39,0004.38,0003.86
2022-08-27 21:24:00,,0821.5,4.99,0.00,29.5,27.9,00.0,38.1,31.4,13.5,0000.0,0008.24,0004.36,0003.86
2022-08-27 21:25:00,,0821.5,5.01,0.00,29.5,26.7,00.0,38.0,31.3,13.6,0000.0,0008.16,0004.33,0003.85
2022-08-27 21:26:00,,0821.5,5.00,0.00,29.4,26.7,00.0,38.0,31.3,14.0,0000.0,0008.11,0004.31,0003.85
2022-08-27 21:27:00,,0821.5,5.00,0.00,29.4,27.0,00.0,38.0,31.2,14.1,0000.0,0008.58,0004.30,0003.84
2022-08-27 21:28:00,,0821.5,5.00,0.00,29.4,27.2,00.0,38.0,31.1,14.2,0000.0,0008.29,0004.29,0003.84
2022-08-27 21:29:00,,0821.6,5.00,0.00,29.4,27.5,00.0,38.0,31.1,14.6,0000.0,0008.17,0004.29,0003.84
2022-08-27 21:30:00,,0821.6,4.99,0.00,29.4,27.8,00.0,38.0,31.2,14.5,0000.0,0008.23,0004.29,0003.83
2022-08-27 21:31:00,,0821.5,5.01,0.00,29.4,28.1,00.0,38.0,31.3,14.7,0000.0,0008.40,0004.33,0003.83
2022-08-27 21:32:00,,0821.6,5.00,0.00,29.5,28.3,00.0,38.0,31.4,14.6,0000.0,0008.97,0004.36,0003.83
2022-08-27 21:33:00,,0821.6,4.99,0.00,29.5,27.9,00.0,38.1,31.4,14.6,0000.0,0009.09,0004.36,0003.84
2022-08-27 21:34:00,,0821.6,5.01,0.00,29.5,26.8,00.0,38.1,31.3,14.3,0000.0,0009.48,0004.36,0003.84
2022-08-27 21:35:00,,0821.6,4.99,0.00,29.4,26.6,00.0,38.0,31.3,14.6,0000.0,0010.82,0004.36,0003.84
2022-08-27 21:36:00,,0821.6,5.00,0.00,29.4,26.9,00.0,38.0,31.2,14.5,0000.0,0011.04,0004.36,0003.83
2022-08-27 21:37:00,,0821.5,5.00,0.00,29.4,27.2,00.0,38.0,31.1,14.8,0000.0,0011.14,0004.35,0003.82
2022-08-27 21:38:00,,0821.5,5.00,0.00,29.4,27.5,00.0,38.0,31.1,15.2,0000.0,0011.21,0004.33,0003.82
2022-08-27 21:39:00,,0821.5,5.01,0.00,29.4,27.8,00.0,38.0,31.2,15.2,0000.0,0010.82,0004.33,0003.80
2022-08-27 21:40:00,,0821.5,5.00,0.00,29.4,28.1,00.0,38.0,31.3,15.2,0000.0,0010.84,0004.32,0003.80
2022-08-27 21:41:00,,0821.6,5.00,0.00,29.5,28.3,00.0,38.0,31.4,15.4,0000.0,0010.84,0004.31,0003.78
2022-08-27 21:42:00,,0821.5,5.00,0.00,29.5,28.4,00.0,38.1,31.4,15.6,0000.0,0010.79,0004.26,0003.77
2022-08-27 21:43:00,,0821.5,5.00,0.00,29.5,27.5,00.0,38.1,31.4,15.5,0000.0,0010.48,0004.22,0003.75
2022-08-27 21:44:00,,0821.5,4.99,0.00,29.5,26.6,00.0,38.1,31.3,15.0,0000.0,0010.19,0004.19,0003.75
2022-08-27 21:45:00,,0821.4,5.01,0.00,29.5,26.8,00.0,38.0,31.3,15.2,0000.0,0010.14,0004.22,0003.74
2022-08-27 21:46:00,,0821.4,5.00,0.00,29.4,27.1,00.0,38.0,31.2,15.0,0000.0,0009.17,0004.23,0003.75
2022-08-27 21:47:00,,0821.4,5.00,0.00,29.4,27.4,00.0,38.0,31.1,15.0,0000.0,0008.90,0004.22,0003.76
2022-08-27 21:48:00,,0821.5,5.00,0.00,29.4,27.7,00.0,38.0,31.2,15.1,0000.0,0008.95,0004.26,0003.76
2022-08-27 21:49:00,,0821.4,5.00,0.00,29.4,27.9,00.0,38.0,31.3,15.0,0000.0,0008.56,0004.27,0003.74
2022-08-27 21:50:00,,0821.4,5.01,0.00,29.5,28.2,00.0,38.0,31.4,14.5,0000.0,0008.58,0004.26,0003.74
2022-08-27 21:51:00,,0821.4,5.00,0.00,29.5,27.8,00.0,38.1,31.4,14.8,0000.0,0009.09,0004.26,0003.73
2022-08-27 21:52:00,,0821.4,5.01,0.00,29.5,26.6,00.0,38.0,31.3,14.5,0000.0,0009.33,0004.25,0003.72
2022-08-27 21:53:00,,0821.4,4.99,0.00,29.4,26.4,00.0,38.0,31.2,14.8,0000.0,0009.18,0004.24,0003.72
2022-08-27 21:54:00,,0821.4,5.00,0.00,29.4,26.7,00.0,38.0,31.1,14.6,0000.0,0009.01,0004.24,0003.72
2022-08-27 21:55:00,,0821.4,5.00,0.00,29.3,27.0,00.0,38.0,31.0,14.9,0000.0,0008.86,0004.19,0003.69
2022-08-27 21:56:00,,0821.4,5.01,0.00,29.3,27.3,00.0,38.0,31.1,14.5,0000.0,0008.61,0004.11,0003.67
2022-08-27 21:57:00,,0821.4,5.00,0.00,29.3,27.6,00.0,38.0,31.2,14.8,0000.0,0008.22,0004.08,0003.65
2022-08-27 21:58:00,,0821.4,4.99,0.00,29.4,27.9,00.0,38.0,31.2,14.8,0000.0,0008.15,0004.06,0003.62
2022-08-27 21:59:00,,0821.4,5.00,0.00,29.4,28.1,00.0,38.0,31.3,14.5,0000.0,0008.42,0004.01,0003.61
